When you browse on this site, cookies collect data to enhance your experience and personalize the content and advertising you see.
Visit our Privacy Policy to learn more. By continuing to use the site, you agree to this use of cookies and data.
  • In Spain
  • List of Countries
  • For 7 days
  • Water Temperature
  • Satellite Maps
  • Weather Map
  • Weather Widgets
  • user-avatar
    Login

    Hourly Weather Dimitrovgrad

    Today, 14 December, Friday

    Time Temperature Precipitation Wind Pressure Humidity
    00:00 -1°C° 0 mm 1 mps 692 mmHg 60%
    01:00 0°C° 0 mm 1 mps 692 mmHg 68%
    02:00 -1°C° 0.3 mm 1 mps 691 mmHg 74%
    03:00 -1°C° 0.3 mm 1 mps 691 mmHg 79%
    04:00 -1°C° 0.3 mm 1 mps 691 mmHg 85%
    05:00 -1°C° 0.5 mm 1 mps 691 mmHg 87%
    06:00 -1°C° 0.5 mm 1 mps 691 mmHg 89%
    07:00 -1°C° 0 mm 1 mps 691 mmHg 91%
    08:00 0°C° 0.4 mm 1 mps 692 mmHg 89%
    09:00 +1°C° 0.4 mm 1 mps 692 mmHg 87%
    10:00 +1°C° 0.4 mm 1 mps 692 mmHg 85%
    11:00 +1°C° 0.4 mm 2 mps 692 mmHg 85%
    12:00 +1°C° 0.4 mm 2 mps 692 mmHg 84%
    13:00 +1°C° 0.4 mm 2 mps 691 mmHg 84%
    14:00 +1°C° 0.3 mm 2 mps 691 mmHg 86%
    15:00 -1°C° 0.3 mm 2 mps 691 mmHg 89%
    16:00 -1°C° 0.3 mm 2 mps 691 mmHg 91%
    17:00 -1°C° 0.1 mm 2 mps 691 mmHg 91%
    18:00 -1°C° 0.1 mm 2 mps 691 mmHg 91%
    19:00 -1°C° 0.1 mm 2 mps 691 mmHg 92%
    20:00 -2°C° 0.2 mm 2 mps 691 mmHg 92%
    21:00 -2°C° 0.2 mm 2 mps 691 mmHg 93%
    22:00 -2°C° 0.2 mm 2 mps 691 mmHg 93%
    23:00 -2°C° 0.1 mm 2 mps 691 mmHg 93%

    Tomorrow, 15 December, Saturday

    Time Temperature Precipitation Wind Pressure Humidity
    00:00 -1°C° 0.1 mm 2 mps 691 mmHg 94%
    01:00 -1°C° 0.1 mm 2 mps 690 mmHg 94%
    02:00 -1°C° 0.1 mm 2 mps 690 mmHg 94%
    03:00 -1°C° 0.1 mm 2 mps 690 mmHg 94%
    04:00 -1°C° 0.1 mm 2 mps 690 mmHg 94%
    05:00 -1°C° 0.1 mm 2 mps 690 mmHg 94%
    06:00 -1°C° 0.1 mm 2 mps 690 mmHg 94%
    07:00 -1°C° 0.1 mm 2 mps 690 mmHg 94%
    08:00 +1°C° 0.1 mm 2 mps 691 mmHg 93%
    09:00 +2°C° 0.1 mm 2 mps 691 mmHg 93%
    10:00 +2°C° 0.1 mm 2 mps 691 mmHg 92%
    11:00 +2°C° 0.5 mm 2 mps 691 mmHg 92%
    12:00 +3°C° 0.5 mm 2 mps 690 mmHg 91%
    13:00 +3°C° 0.5 mm 2 mps 690 mmHg 91%
    14:00 +2°C° 0.4 mm 2 mps 690 mmHg 92%
    15:00 +2°C° 0.4 mm 2 mps 690 mmHg 93%
    16:00 +2°C° 0.4 mm 1 mps 690 mmHg 94%
    17:00 +2°C° 0.3 mm 1 mps 690 mmHg 94%
    18:00 +2°C° 0.3 mm 1 mps 690 mmHg 94%
    19:00 +2°C° 0.3 mm 1 mps 690 mmHg 94%
    20:00 +2°C° 0.2 mm 1 mps 690 mmHg 94%
    21:00 +2°C° 0.2 mm 1 mps 690 mmHg 94%
    22:00 +2°C° 0.2 mm 1 mps 690 mmHg 94%
    23:00 +2°C° 0.3 mm 1 mps 689 mmHg 95%

    Day after tomorrow, 16 December, Sunday

    Time Temperature Precipitation Wind Pressure Humidity
    00:00 +1°C° 0.3 mm 1 mps 689 mmHg 95%
    01:00 +1°C° 0.3 mm 1 mps 689 mmHg 95%
    02:00 +1°C° 0.2 mm 1 mps 689 mmHg 95%
    03:00 +1°C° 0.2 mm 1 mps 689 mmHg 95%
    04:00 +1°C° 0.2 mm 1 mps 689 mmHg 95%
    05:00 +1°C° 0.4 mm 1 mps 689 mmHg 95%
    06:00 -1°C° 0.4 mm 2 mps 690 mmHg 95%
    07:00 -1°C° 0.4 mm 2 mps 690 mmHg 95%
    08:00 -1°C° 0.6 mm 2 mps 690 mmHg 94%
    09:00 -1°C° 0.6 mm 2 mps 691 mmHg 94%
    10:00 -1°C° 0.6 mm 2 mps 691 mmHg 93%
    11:00 -1°C° 0.3 mm 2 mps 691 mmHg 92%
    12:00 -1°C° 0.3 mm 2 mps 691 mmHg 91%
    13:00 -2°C° 0.3 mm 2 mps 691 mmHg 91%
    14:00 -2°C° 0.1 mm 2 mps 692 mmHg 91%
    15:00 -2°C° 0.1 mm 2 mps 692 mmHg 91%
    16:00 -2°C° 0.1 mm 2 mps 692 mmHg 92%
    17:00 -2°C° 0 mm 2 mps 693 mmHg 92%
    18:00 -1°C° 0 mm 1 mps 693 mmHg 93%
    19:00 -1°C° 0 mm 1 mps 694 mmHg 93%
    20:00 -1°C° 0 mm 1 mps 694 mmHg 93%
    21:00 -1°C° 0 mm 1 mps 694 mmHg 93%
    22:00 -1°C° 0 mm 1 mps 694 mmHg 93%
    23:00 -1°C° 0 mm 1 mps 694 mmHg 93%

    17 December, Monday

    Time Temperature Precipitation Wind Pressure Humidity
    00:00 -1°C° 0 mm 1 mps 694 mmHg 93%
    01:00 -1°C° 0 mm 1 mps 694 mmHg 93%
    02:00 -1°C° 0 mm 1 mps 694 mmHg 93%
    03:00 -1°C° 0 mm 1 mps 693 mmHg 93%
    04:00 -1°C° 0 mm 1 mps 693 mmHg 92%
    05:00 0°C° 0 mm 1 mps 693 mmHg 92%
    06:00 0°C° 0 mm 1 mps 693 mmHg 92%
    07:00 0°C° 0 mm 1 mps 693 mmHg 92%
    08:00 +1°C° 0 mm 1 mps 693 mmHg 92%
    09:00 +2°C° 0 mm 1 mps 694 mmHg 91%
    10:00 +3°C° 0 mm 1 mps 694 mmHg 91%
    11:00 +3°C° 0.2 mm 1 mps 693 mmHg 91%
    12:00 +4°C° 0.2 mm 1 mps 693 mmHg 92%
    13:00 +3°C° 0.2 mm 0 mps 693 mmHg 92%
    14:00 +2°C° 0.3 mm 0 mps 693 mmHg 93%
    15:00 +2°C° 0.3 mm 0 mps 693 mmHg 94%
    16:00 +3°C° 0.3 mm 1 mps 692 mmHg 95%
    17:00 +2°C° 0.2 mm 1 mps 693 mmHg 95%
    18:00 +2°C° 0.2 mm 1 mps 693 mmHg 95%
    19:00 +2°C° 0.2 mm 1 mps 693 mmHg 95%
    20:00 +2°C° 0.2 mm 1 mps 693 mmHg 95%
    21:00 +2°C° 0.2 mm 1 mps 694 mmHg 95%
    22:00 +2°C° 0.2 mm 1 mps 694 mmHg 96%
    23:00 +2°C° 0.1 mm 1 mps 694 mmHg 96%

    18 December, Tuesday

    Time Temperature Precipitation Wind Pressure Humidity
    00:00 +2°C° 0.1 mm 1 mps 694 mmHg 96%
    01:00 +1°C° 0.1 mm 1 mps 693 mmHg 96%
    02:00 +1°C° 0.1 mm 1 mps 693 mmHg 96%
    03:00 +1°C° 0.1 mm 1 mps 693 mmHg 96%
    04:00 +1°C° 0.1 mm 1 mps 693 mmHg 96%
    05:00 +1°C° 0.5 mm 1 mps 694 mmHg 96%
    06:00 -1°C° 0.5 mm 2 mps 694 mmHg 95%
    07:00 -1°C° 0.5 mm 2 mps 694 mmHg 95%
    08:00 -1°C° 0.5 mm 2 mps 695 mmHg 94%
    09:00 -1°C° 0.5 mm 2 mps 695 mmHg 94%
    10:00 +1°C° 0.5 mm 2 mps 695 mmHg 93%
    11:00 +1°C° 0.4 mm 2 mps 695 mmHg 93%
    12:00 +1°C° 0.4 mm 2 mps 695 mmHg 92%
    13:00 +1°C° 0.4 mm 2 mps 695 mmHg 92%
    14:00 +1°C° 0.2 mm 2 mps 695 mmHg 92%
    15:00 -1°C° 0.2 mm 2 mps 696 mmHg 93%
    16:00 -1°C° 0.2 mm 2 mps 696 mmHg 94%
    17:00 -1°C° 0.2 mm 2 mps 696 mmHg 94%
    18:00 -2°C° 0.2 mm 2 mps 697 mmHg 94%
    19:00 -2°C° 0.2 mm 2 mps 697 mmHg 94%
    20:00 0°C° 0.1 mm 1 mps 697 mmHg 95%
    21:00 0°C° 0.1 mm 1 mps 697 mmHg 95%
    22:00 0°C° 0.1 mm 1 mps 697 mmHg 95%
    23:00 0°C° 0 mm 1 mps 697 mmHg 95%

    19 December, Wednesday

    Time Temperature Precipitation Wind Pressure Humidity
    00:00 0°C° 0 mm 1 mps 697 mmHg 95%
    01:00 0°C° 0 mm 1 mps 697 mmHg 95%
    02:00 0°C° 0.1 mm 1 mps 697 mmHg 95%
    03:00 -1°C° 0.1 mm 1 mps 697 mmHg 95%
    04:00 -1°C° 0.1 mm 1 mps 697 mmHg 95%
    05:00 -2°C° 0 mm 0 mps 697 mmHg 94%
    06:00 -2°C° 0 mm 0 mps 697 mmHg 94%
    07:00 -3°C° 0 mm 0 mps 697 mmHg 94%
    08:00 -1°C° 0 mm 0 mps 697 mmHg 91%
    09:00 0°C° 0 mm 0 mps 697 mmHg 89%
    10:00 +1°C° 0 mm 0 mps 697 mmHg 87%
    11:00 +2°C° 0 mm 1 mps 697 mmHg 86%
    12:00 +3°C° 0 mm 1 mps 697 mmHg 85%
    13:00 +3°C° 0 mm 1 mps 696 mmHg 85%
    14:00 +2°C° 0 mm 1 mps 696 mmHg 87%
    15:00 +2°C° 0 mm 1 mps 696 mmHg 89%
    16:00 +1°C° 0 mm 1 mps 696 mmHg 91%
    17:00 0°C° 0 mm 1 mps 696 mmHg 91%
    18:00 0°C° 0 mm 1 mps 696 mmHg 91%
    19:00 -1°C° 0 mm 1 mps 696 mmHg 91%
    20:00 -1°C° 0 mm 1 mps 696 mmHg 91%
    21:00 -1°C° 0 mm 1 mps 696 mmHg 90%
    22:00 -1°C° 0 mm 1 mps 696 mmHg 89%
    23:00 -1°C° 0 mm 1 mps 696 mmHg 88%
    Show more